CZ-6A DEB, 54626

Orbit data source: Space-Track

CZ-6A DEB, 54626 is space debris in SSO originally from a launch on Fri, 11 Nov 2022 UTC launched from the Taiyaun Space Center, China (TSC). Debris objects in space refer to the collection of defunct objects orbiting the Earth. Examples of debris include non-operational satellites, rocket bodies, and fragments generated from explosions, collisions, or faulty payload assembly.

Loading next visibility...
Identifier
54626, 2022-151PC
Orbit
SSO
Country
Flag of CNCN / PRC
Related business
Manufacturer
SAST
Mission
Spacecraft
Bus & Motor
Unknown
Mass
Unknown
Launch date (UTC)
2022-11-11 (4 years ago)
Launch vehicle
Unknown
Launch site
Taiyaun Space Center, China (TSC)
Object type
Payload
Rocket body
Debris
Shape & HBR
Unknown shape, 0.1 m
Radar Cross Section
Medium (>0.1 m² and <1 m²)

Expand to show TLE details & history
Last TLE update: 2 days ago

TLE from 2 days ago
0 CZ-6A DEB
1 54626U 22151PC  26171.08793086  .00006230  00000-0  11228-2 0  9999
2 54626  98.6122 229.1503 0073679 292.3968  66.9439 14.65154320189215
Epoch: 2026-06-20T02:06Z
TLE epoch observation values (Epoch: 2026-06-20T02:06:37.226Z)
Latitude
-0.00004°
Longitude
-70.81238°
Altitude
659.524 km
Speed
7.538 km/s
True Right ascension
15h 16m 36s
True Declination
0° 00' 00"
Sunlit
Object was in full shadow at epoch
Visualization orbit readout
Latitude
Unknown
Longitude
Unknown
Altitude
Unknown
Speed
Unknown
Apparent Right ascension
Unknown
Apparent Declination
Unknown
Sunlit
N/A
Visualization observer readout
Local Sidereal Time
21:33:33
Azimuth
Unknown
Elevation
Unknown
Doppler factor
Unknown
Orbital elements
Apogee altitude
725.631 km
Perigee altitude
621.716 km
Semi-major axis
7,051.811 km
Eccentricity
0.00737
Inclination
98.6122°
RAAN
229.1503°
Arg. of periapsis
292.3968°
True anomaly
67.72355°
Mean anomaly
66.9439°
Eccentric anomaly
67.33344°
Mean motion
3.66515 °/min
Orbital period
98.22 mins
BSTAR
0.0011228
Loading maneuver chart data...
Computing Atmospheric mass density...
Loading historical data...
Loading historical data...
Loading historical data...
Loading historical data...
Loading historical data...
Loading historical data...
Loading historical data...

Documentation

Showing up to 5 results
|